Location: Berg
(48.4333°N, 13.9167°E)
Time: 11:59:30
(UTC+00:00)

ATLAS CENTAUR R/B - Pass Details

Date: 23 January 2021
Orbit: 471 x 674 km, 64.6° (Epoch: 28 February)

Event Time Altitude Azimuth Distance (km) Brightness Sun altitude
Rises 05:55:37 0° 232° (SW) 2,524 4.4 -8.1°
Reaches altitude 10° 05:57:48 10° 238° (WSW) 1,638 3.4 -7.8°
Maximum altitude 06:01:19 48° 314° (NW) 625 1.2 -7.2°
Drops below altitude 10° 06:04:52 10° 30° (NNE) 1,650 3.9 -6.7°
Sets 06:07:05 0° 36° (NE) 2,544 4.9 -6.3°
